When you browse on this site, cookies collect data to enhance your experience and personalize the content and advertising you see.
Visit our Privacy Policy to learn more. By continuing to use the site, you agree to this use of cookies and data.
  • In Spain
  • List of Countries
  • For 7 days
  • Water Temperature
  • Weather Map
  • Weather Widgets
  • user-avatar
    Login

    Hourly Weather Stepanakert

    Today, 6 June, Saturday

    Time Temperature Precipitation Wind Pressure Humidity
    00:00 +19°C° 0.2 mm 1 mps 695 mmHg 69%
    01:00 +19°C° 0.1 mm 1 mps 695 mmHg 71%
    02:00 +18°C° 0.1 mm 1 mps 695 mmHg 73%
    03:00 +16°C° 0 mm 1 mps 694 mmHg 74%
    04:00 +18°C° 0.2 mm 1 mps 695 mmHg 74%
    05:00 +18°C° 0.2 mm 1 mps 695 mmHg 75%
    06:00 +19°C° 0.2 mm 1 mps 696 mmHg 75%
    07:00 +20°C° 0.1 mm 1 mps 696 mmHg 69%
    08:00 +20°C° 0.1 mm 2 mps 696 mmHg 64%
    09:00 +21°C° 0 mm 2 mps 696 mmHg 58%
    10:00 +23°C° 0.2 mm 2 mps 696 mmHg 58%
    11:00 +24°C° 0.2 mm 3 mps 696 mmHg 57%
    12:00 +24°C° 0.2 mm 3 mps 696 mmHg 56%
    13:00 +24°C° 0.2 mm 3 mps 696 mmHg 56%
    14:00 +24°C° 0.2 mm 2 mps 696 mmHg 56%
    15:00 +24°C° 0 mm 2 mps 695 mmHg 57%
    16:00 +24°C° 0.3 mm 2 mps 695 mmHg 60%
    17:00 +23°C° 0.3 mm 2 mps 696 mmHg 62%
    18:00 +23°C° 0.3 mm 2 mps 696 mmHg 64%
    19:00 +20°C° 0.2 mm 2 mps 696 mmHg 69%
    20:00 +20°C° 0.2 mm 1 mps 695 mmHg 74%
    21:00 +18°C° 0.2 mm 1 mps 695 mmHg 79%
    22:00 +18°C° 0 mm 1 mps 695 mmHg 78%
    23:00 +17°C° 0 mm 2 mps 696 mmHg 78%

    Tomorrow, 7 June, Sunday

    Time Temperature Precipitation Wind Pressure Humidity
    00:00 +16°C° 0 mm 2 mps 696 mmHg 77%
    01:00 +16°C° 0 mm 2 mps 695 mmHg 76%
    02:00 +16°C° 0 mm 2 mps 695 mmHg 74%
    03:00 +16°C° 0 mm 2 mps 695 mmHg 73%
    04:00 +16°C° 0 mm 2 mps 695 mmHg 71%
    05:00 +18°C° 0 mm 1 mps 695 mmHg 69%
    06:00 +19°C° 0 mm 1 mps 696 mmHg 66%
    07:00 +21°C° 0 mm 1 mps 696 mmHg 61%
    08:00 +21°C° 0 mm 2 mps 696 mmHg 55%
    09:00 +24°C° 0 mm 2 mps 696 mmHg 49%
    10:00 +25°C° 0 mm 2 mps 696 mmHg 48%
    11:00 +26°C° 0 mm 2 mps 695 mmHg 47%
    12:00 +27°C° 0 mm 2 mps 695 mmHg 45%
    13:00 +27°C° 0 mm 2 mps 695 mmHg 46%
    14:00 +27°C° 0 mm 2 mps 695 mmHg 46%
    15:00 +28°C° 0 mm 2 mps 694 mmHg 46%
    16:00 +27°C° 0 mm 2 mps 694 mmHg 49%
    17:00 +26°C° 0 mm 2 mps 694 mmHg 52%
    18:00 +26°C° 0 mm 1 mps 693 mmHg 55%
    19:00 +24°C° 0 mm 1 mps 693 mmHg 58%
    20:00 +22°C° 0 mm 1 mps 693 mmHg 61%
    21:00 +20°C° 0 mm 1 mps 693 mmHg 63%
    22:00 +19°C° 0 mm 2 mps 693 mmHg 63%
    23:00 +18°C° 0 mm 2 mps 693 mmHg 63%

    Day after tomorrow, 8 June, Monday

    Time Temperature Precipitation Wind Pressure Humidity
    00:00 +18°C° 0 mm 2 mps 693 mmHg 62%
    01:00 +18°C° 0 mm 2 mps 693 mmHg 63%
    02:00 +17°C° 0 mm 2 mps 693 mmHg 63%
    03:00 +17°C° 0 mm 2 mps 692 mmHg 64%
    04:00 +19°C° 0 mm 1 mps 693 mmHg 63%
    05:00 +20°C° 0 mm 1 mps 693 mmHg 62%
    06:00 +21°C° 0 mm 1 mps 693 mmHg 61%
    07:00 +22°C° 0 mm 1 mps 693 mmHg 55%
    08:00 +24°C° 0 mm 2 mps 693 mmHg 48%
    09:00 +25°C° 0 mm 2 mps 694 mmHg 42%
    10:00 +26°C° 0 mm 2 mps 694 mmHg 41%
    11:00 +27°C° 0 mm 2 mps 693 mmHg 39%
    12:00 +28°C° 0 mm 3 mps 693 mmHg 37%
    13:00 +28°C° 0 mm 3 mps 693 mmHg 37%
    14:00 +28°C° 0 mm 3 mps 693 mmHg 37%
    15:00 +28°C° 0 mm 3 mps 692 mmHg 37%
    16:00 +28°C° 0 mm 2 mps 692 mmHg 41%
    17:00 +27°C° 0 mm 2 mps 692 mmHg 44%
    18:00 +26°C° 0 mm 1 mps 692 mmHg 48%
    19:00 +24°C° 0 mm 1 mps 692 mmHg 51%
    20:00 +22°C° 0 mm 1 mps 692 mmHg 54%
    21:00 +20°C° 0 mm 1 mps 692 mmHg 56%
    22:00 +18°C° 0 mm 2 mps 692 mmHg 57%
    23:00 +18°C° 0 mm 2 mps 692 mmHg 57%

    9 June, Tuesday

    Time Temperature Precipitation Wind Pressure Humidity
    00:00 +18°C° 0 mm 2 mps 692 mmHg 58%
    01:00 +17°C° 0 mm 2 mps 692 mmHg 58%
    02:00 +17°C° 0 mm 2 mps 691 mmHg 59%
    03:00 +16°C° 0 mm 2 mps 691 mmHg 59%
    04:00 +17°C° 0 mm 2 mps 692 mmHg 59%
    05:00 +18°C° 0 mm 2 mps 692 mmHg 59%
    06:00 +19°C° 0 mm 2 mps 692 mmHg 58%
    07:00 +21°C° 0 mm 2 mps 693 mmHg 52%
    08:00 +23°C° 0 mm 2 mps 693 mmHg 47%
    09:00 +25°C° 0 mm 2 mps 693 mmHg 41%
    10:00 +26°C° 0 mm 2 mps 693 mmHg 40%
    11:00 +27°C° 0 mm 2 mps 693 mmHg 39%
    12:00 +27°C° 0 mm 2 mps 693 mmHg 39%
    13:00 +28°C° 0 mm 2 mps 693 mmHg 39%
    14:00 +28°C° 0 mm 2 mps 693 mmHg 40%
    15:00 +28°C° 0 mm 2 mps 692 mmHg 40%
    16:00 +27°C° 0 mm 2 mps 692 mmHg 44%
    17:00 +27°C° 0 mm 1 mps 692 mmHg 48%
    18:00 +26°C° 0 mm 1 mps 693 mmHg 52%
    19:00 +25°C° 0 mm 1 mps 693 mmHg 55%
    20:00 +23°C° 0 mm 1 mps 692 mmHg 57%
    21:00 +20°C° 0 mm 2 mps 692 mmHg 60%
    22:00 +20°C° 0 mm 2 mps 692 mmHg 61%
    23:00 +21°C° 0 mm 1 mps 692 mmHg 61%

    10 June, Wednesday

    Time Temperature Precipitation Wind Pressure Humidity
    00:00 +20°C° 0 mm 1 mps 692 mmHg 61%
    01:00 +20°C° 0 mm 1 mps 692 mmHg 61%
    02:00 +20°C° 0 mm 1 mps 692 mmHg 62%
    03:00 +19°C° 0 mm 1 mps 692 mmHg 62%
    04:00 +20°C° 0 mm 1 mps 692 mmHg 62%
    05:00 +21°C° 0 mm 1 mps 692 mmHg 62%
    06:00 +22°C° 0 mm 1 mps 693 mmHg 62%
    07:00 +23°C° 0 mm 1 mps 693 mmHg 56%
    08:00 +25°C° 0 mm 1 mps 693 mmHg 50%
    09:00 +26°C° 0 mm 1 mps 693 mmHg 45%
    10:00 +27°C° 0 mm 2 mps 693 mmHg 44%
    11:00 +28°C° 0 mm 2 mps 693 mmHg 43%
    12:00 +29°C° 0 mm 2 mps 694 mmHg 42%
    13:00 +29°C° 0 mm 2 mps 693 mmHg 42%
    14:00 +30°C° 0 mm 2 mps 693 mmHg 42%
    15:00 +30°C° 0 mm 2 mps 692 mmHg 42%
    16:00 +29°C° 0.2 mm 2 mps 692 mmHg 47%
    17:00 +28°C° 0.2 mm 1 mps 692 mmHg 51%
    18:00 +28°C° 0.2 mm 1 mps 692 mmHg 55%
    19:00 +26°C° 0 mm 1 mps 692 mmHg 57%
    20:00 +24°C° 0 mm 1 mps 692 mmHg 59%
    21:00 +23°C° 0 mm 1 mps 692 mmHg 62%
    22:00 +22°C° 0 mm 1 mps 692 mmHg 61%
    23:00 +22°C° 0 mm 1 mps 692 mmHg 60%

    11 June, Thursday

    Time Temperature Precipitation Wind Pressure Humidity
    00:00 +21°C° 0 mm 2 mps 691 mmHg 60%
    01:00 +21°C° 0 mm 2 mps 691 mmHg 60%
    02:00 +20°C° 0 mm 2 mps 691 mmHg 61%
    03:00 +20°C° 0 mm 2 mps 691 mmHg 61%
    04:00 +21°C° 0 mm 1 mps 691 mmHg 60%
    05:00 +22°C° 0 mm 1 mps 691 mmHg 59%
    06:00 +23°C° 0 mm 1 mps 691 mmHg 58%
    07:00 +25°C° 0 mm 1 mps 691 mmHg 50%
    08:00 +26°C° 0 mm 1 mps 691 mmHg 42%
    09:00 +28°C° 0 mm 1 mps 691 mmHg 34%
    10:00 +28°C° 0 mm 2 mps 691 mmHg 34%
    11:00 +29°C° 0 mm 2 mps 691 mmHg 33%
    12:00 +30°C° 0 mm 2 mps 691 mmHg 33%
    13:00 +30°C° 0 mm 2 mps 691 mmHg 34%
    14:00 +30°C° 0 mm 2 mps 690 mmHg 35%
    15:00 +30°C° 0 mm 2 mps 690 mmHg 36%
    16:00 +29°C° 0.1 mm 1 mps 690 mmHg 41%
    17:00 +28°C° 0.1 mm 1 mps 690 mmHg 46%
    18:00 +27°C° 0.1 mm 1 mps 690 mmHg 52%
    19:00 +26°C° 0 mm 1 mps 690 mmHg 53%
    20:00 +25°C° 0 mm 1 mps 690 mmHg 54%
    21:00 +23°C° 0 mm 1 mps 690 mmHg 56%
    22:00 +23°C° 0 mm 1 mps 690 mmHg 56%
    23:00 +21°C° 0 mm 2 mps 689 mmHg 56%
    Show more